RH
68 76 76 79 84 87 86 79 71 74 81 75 77 81 84 93 93 87 90 97 97 97
71 73 76 76 81 84 86 66 77 74 76 73 78 80 86 97 96 85 83 94 89 96
70 72 73 75 79 80 86 81 76 75 75 73 75 80 86 96 82 83 84 90 88 93
72 71 73 74 76 78 82 79 81 75 73 75 75 79 88 86 80 88 85 90 89 93
70 70 74 74 71 77 79 78 78 80 74 75 78 82 89 83 85 90 88 94 89 93
70 70 72 72 71 71 75 79 79 79 68 77 82 84 85 78 81 81 82 91 93 95
70 68 71 70 72 73 74 76 70 83 73 73 79 77 81 72 78 79 79 85 92 96
66 65 68 70 71 72 75 74 66 84 76 73 71 69 81 71 76 79 78 80 82 92
60 61 68 66 69 71 72 74 73 80 78 77 64 76 77 75 76 77 78 80 81 81
60 62 66 63 67 71 74 75 79 80 77 75 73 75 73 78 77 81 82 82 81 78
61 62 63 66 69 70 73 76 76 79 83 75 69 75 73 74 80 82 82 79 78 81
61 62 64 68 70 72 72 76 74 77 73 72 75 74 75 69 76 77 82 77 76 76
59 64 67 70 74 74 74 70 74 65 74 70 74 71 71 69 80 84 83 80 78 75
58 65 71 74 76 78 80 79 80 82 77 72 72 72 67 69 75 92 85 85 88 80
Wind_Speed
7 4 4 5 4 4 4 7 10 11 12 14 14 13 12 9 9 10 10 13 11 9
6 6 5 6 4 3 5 8 9 11 12 15 13 13 13 8 11 11 11 11 13 11
6 6 6 5 5 5 5 5 8 11 12 14 14 14 13 9 12 13 11 10 14 13
6 6 6 5 6 4 5 5 6 7 11 13 13 14 13 12 13 13 14 14 14 15
6 6 6 6 6 6 4 4 5 7 11 11 13 14 13 14 13 14 15 14 15 15
5 6 6 6 6 7 6 5 6 8 12 10 13 13 13 12 14 14 15 14 14 15
4 5 5 6 6 6 6 7 9 8 11 10 12 13 12 13 13 14 15 15 14 14
4 5 6 6 6 6 7 7 8 6 11 12 12 11 13 12 13 14 16 15 15 15
6 6 6 6 6 6 6 6 7 7 11 13 11 25 24 11 12 13 15 17 17 15
5 6 6 6 6 6 6 6 7 7 10 13 15 26 24 23 11 12 13 14 16 15
5 6 6 6 6 7 5 6 6 8 6 11 14 24 23 19 10 11 13 14 15 17
5 5 6 6 6 6 6 6 6 7 11 11 12 24 23 15 10 12 13 13 15 16
5 5 6 6 6 5 5 7 6 10 10 17 11 22 24 17 7 11 10 12 13 24
5 6 6 7 6 6 7 7 8 8 9 11 13 13 23 24 10 7 9 9 10 11
Wind_Direction
25 22 13 33 50 15 10 26 353 358 352 359 355 351 349 342 348 354 351 345 349 339
27 23 21 27 56 34 29 19 0 358 3 1 357 352 349 348 355 357 354 349 351 350
29 23 21 23 42 52 55 13 7 6 6 6 357 354 353 357 0 358 358 353 357 353
27 22 19 22 15 56 72 26 6 7 17 12 1 358 355 2 3 358 1 358 2 356
37 24 20 19 11 21 68 36 15 6 19 17 3 358 360 6 1 6 4 1 6 358
43 30 23 16 18 11 23 35 13 34 25 19 5 1 1 9 12 15 4 5 6 357
52 37 28 19 24 21 21 33 27 48 27 17 9 6 1 16 17 21 5 8 9 3
62 43 36 32 30 25 33 40 30 55 29 17 17 12 6 25 20 24 14 9 12 11
61 46 42 33 28 32 36 42 40 51 36 24 18 16 17 30 27 21 19 13 10 14
63 50 41 30 28 26 32 44 44 43 47 29 24 22 20 19 24 19 18 17 13 14
68 57 38 32 29 25 22 48 44 47 54 37 25 25 23 18 16 17 16 17 24 17
75 71 47 32 25 24 28 36 49 57 50 39 25 25 27 23 22 21 17 13 19 30
91 83 70 39 34 35 37 42 54 56 48 43 26 24 29 30 19 28 18 17 16 29
102 86 78 54 32 36 38 45 41 53 47 36 26 18 29 28 25 26 25 22 17 23